www.pogodaiklimat.ru

Погода и климат >> Архив погоды >> Россия >> Красноярский край >> Верещагино


ПОГОДА в Верещагино

  • Прогноз погоды в Верещагино
  • Монитор погоды в Верещагино

АРХИВ ПОГОДЫ в Верещагино

Время (UTC), дата Ветер
(напр.,м/с)
 
Видим.   Явления Облачность Т
(С)
Тd
(С)
f
(%)
Тe
(С)
Тes
(С)
Комфортность P
(гПа)
Po
(гПа)
Тmin
(С)
Tmax
(С)
R
(мм)
R24
(мм)
S
(см)
03 14.05 С 3 50 км ясно -1.0 -8.0 59 -5 +1 1016.0 1012.2
06 14.05 С 2 50 км 3/1
[Cu hum Ci fib]
+2.0 -6.0 55 -1 +9 1016.1 1012.3
09 14.05 С 3 50 км 1/1 600 м
[Cu hum]
+3.9 -6.9 45 +1 +7 1016.1 1012.3
12 14.05 С 3 50 км 3/0
[Ac cast Ci fib]
+3.3 -6.1 50 0 +2 1016.9 1013.1 +4.3
15 14.05 С 4 50 км 3/0
[Ac lent Ci fib]
+2.0 -6.8 52 -2 -2 1017.3 1013.5
18 14.05 С 2 н/о 1/0
[Ac lent]
-0.1 -7.3 58 -3 -3 1017.3 1013.5
21 14.05 С 3 50 км ясно -1.5 -7.5 64 -6 -6 1017.2 1013.4
00 15.05 С 3 50 км ясно -2.0 -7.8 64 -7 -5 1017.4 1013.6 -2.6 53
03 15.05 С 3 50 км ясно +0.6 -5.9 62 -3 +3 1017.4 1013.6
06 15.05 С 4 50 км 1/0
[Ac trans]
+2.7 -6.6 50 -1 +6 1016.9 1013.1
09 15.05 С 3 50 км 5/0
[Ci fib]
+3.6 -6.1 49 0 +7 1016.9 1013.1
12 15.05 С 2 50 км 4/0
[Ci fib]
+3.9 -5.2 51 +2 +4 1017.3 1013.5 +4.1
15 15.05 С 1 50 км 5/0
[Ci fib]
+1.9 -5.3 59 +1 +1 1017.8 1014.0
18 15.05 С 2 н/о 4/0
[Ci fib]
-0.1 -6.4 62 -3 -3 1018.1 1014.3
21 15.05 С 1 50 км 1/0
[Ci fib]
-2.7 -7.6 69 -5 -5 1018.1 1014.3
00 16.05 СЗ 2 50 км ясно -2.2 -7.3 68 -6 -4 1018.5 1014.6 -3.4 52
03 16.05 С 2 50 км ясно +2.2 -6.1 54 -0 +7 1018.2 1014.4
06 16.05 С 2 50 км ясно +4.5 -5.5 48 +2 +14 опасность
простуды
1018.6 1014.8
09 16.05 СЗ 3 50 км ясно +5.8 -6.0 42 +3 +10 1018.9 1015.1
12 16.05 СЗ 2 50 км ясно +5.9 -6.3 41 +4 +7 1018.9 1015.1 +6.2
15 16.05 СЗ 1 50 км ясно +2.8 -6.9 49 +2 +2 1019.1 1015.3
18 16.05 СЗ 1 н/о ясно +0.6 -8.0 52 -1 -1 1018.7 1014.9
21 16.05 СЗ 1 50 км 1/0
[Ci fib]
-2.0 -7.4 67 -4 -4 1018.4 1014.6
00 17.05 С 1 50 км 1/0
[Ci fib]
-1.0 -8.0 59 -3 -0 1018.1 1014.3 -2.6 50
03 17.05 З 1 50 км 3/0
[Ci fib]
+2.5 -6.1 53 +2 +10 опасность
простуды
1017.9 1014.1
06 17.05 ЮЗ 1 50 км 8/5 600 м
[Cu med, cong Ci fib]
+7.3 -4.8 42 +7 +13 1017.4 1013.7
09 17.05 ЮЗ 2 50 км 8/8 600 м
[Cu Sc]
+8.3 -5.2 38 +7 +9 1017.2 1013.5
12 17.05 Ю 1 50 км 8/5 600 м
[Cu Sc Ci fib]
+9.3 -4.7 37 +9 +11 1017.0 1013.3 +9.4
15 17.05 ЮВ 1 50 км 5/5 600 м
[Sc]
+7.8 -5.6 38 +8 +8 1016.9 1013.2
18 17.05 штиль 0 н/о 5/4 600 м
[Sc Ci fib]
+0.6 -6.3 60 0 0 1016.9 1013.1
21 17.05 В 1 50 км 4/3 600 м
[Sc Ci fib]
+0.4 -5.8 63 -1 -1 1016.5 1012.7
00 18.05 Ю 1 50 км 1/0
[Ci fib]
-4.8 -4.7 100 -7 -5 1016.1 1012.3 -0.8 45
03 18.05 Ю 3 50 км 3/1 600 м
[Cu med, cong Ci fib]
+9.2 -5.7 34 +8 +13 1015.3 1011.6
06 18.05 Ю 4 50 км 9/9 600 м
[Cb cap]
+10.3 -5.9 31 +8 +9 1013.9 1010.3
09 18.05 Ю 2 50 км 8/8 600 м
[Cb cap]
+10.1 -7.8 28 +9 +11 1011.9 1008.2
12 18.05 В 3
{10}
50 км 9/9 600 м
[Cb cap]
+10.2 -7.0 29 +9 +9 1010.8 1007.1 +11.6
15 18.05 ЮВ 3-10
{10}
10 км слаб. ливневой дождь 10/10 600 м
[Cb cap]
+7.6 -5.1 40 +6 +6 1010.7 1007.0
18 18.05 В 2
{10}
н/о слаб. ливневой дождь 10/10 600 м
[Cb cap]
+3.7 +2.2 90 +1 +1 1009.0 1005.2
21 18.05 В 3 10 км слаб. ливневой дождь 10/10 600 м
[Cb cap]
+4.0 +2.8 92 0 0 1006.5 1002.8
00 19.05 В 3 10 км слаб. ливневой дождь 10/10 600 м
[Cb cap]
+4.4 +2.2 86 +1 +1 1004.9 1001.2 +3.7 4 38
03 19.05 В 4 10 км слаб. ливневой дождь 10/10 600 м
[Cb cap]
+7.5 +1.3 65 +4 +4 1003.3 999.6
06 19.05 В 2 10 км слаб. дождь 10/10 600 м
[Sc]
+6.7 +3.9 82 +4 +4 1002.7 999.0
09 19.05 В 2 10 км слаб. дождь 10/10 300 м
[Sc]
+7.9 +4.2 77 +6 +6 1001.4 997.7
12 19.05 В 3 10 км слаб. дождь 10/10 600 м
[Sc]
+7.7 +2.7 71 +5 +5 1001.4 997.7 +9.9 2
15 19.05 ЮВ 3 10 км слаб. дождь 10/10 600 м
[Sc]
+7.4 +5.1 85 +5 +5 999.2 995.5
18 19.05 В 2 н/о {дождь} 10/10 600 м
[Sc]
+5.4 +4.5 94 +3 +3 997.6 993.9
21 19.05 Ю 3 50 км 10/10 600 м
[Sc]
+4.5 +3.3 92 +1 +1 997.2 993.5
00 20.05 ЮЗ 3 50 км 10/10 600 м
[Cb cap]
+3.2 +1.9 91 -1 -1 998.5 994.8 +3.0 2 28
03 20.05 ЮЗ 2 50 км 10/10 300 м
[Cb cap]
+4.0 +2.5 90 +1 +1 999.8 996.1
06 20.05 Ю 1 50 км 9/9 600 м
[Cb cap]
+5.4 +0.5 71 +4 +6 1000.2 996.5
09 20.05 Ю 3 50 км 3/3 600 м
[Cu med, cong]
+9.6 -1.8 45 +8 +13 1000.0 996.3
12 20.05 ЮЗ 1 50 км 5/3 600 м
[Cu med, cong Ci fib]
+11.4 -1.1 42 +12 +14 999.4 995.7 +11.8
15 20.05 В 1 50 км 8/5 600 м
[Sc Ci fib]
+9.6 -1.8 45 +10 +10 998.3 994.7
18 20.05 СВ 1 н/о 8/8 600 м
[Sc]
+6.8 +1.3 68 +6 +6 996.6 993.0
21 20.05 В 1 50 км 10/10 600 м
[Cb cap]
+5.3 +0.4 71 +4 +4 994.8 991.0
00 21.05 В 1 10 км слаб. ливневой дождь 10/10 600 м
[Cb cap]
+5.1 +3.9 92 +4 +4 993.5 989.8 +4.2 0.7 18

 

Местоположение метеостанции Верещагино (Красноярский край, Россия): широта 64.23 долгота 87.47 высота над уровнем моря 30 м.

В архиве по умолчанию представлена погода в Верещагино за последнюю неделю. Архивные данные за месяц целиком и за предыдущие месяцы, начиная с января 2011 года, Вы можете получить, выбрав интересующий диапазон дат из раскрывающегося списка и нажав кнопку "Ввод!".


*Определитесь, кто Вы:
робот инопланетянин человек

Внимание! Время в таблицах - всемирное. Для получения местного времени необходимо прибавить поправку, которая равна 7 ч.

Смотрите также архив погоды в соседних городах и на ближайших метеорологических станциях:

Погода в Верхнеимбатске (Красноярский край, Россия) (122 км)
Погода в Туруханске (Красноярский край, Россия) (174 км)
Погода в Большом Пороге (Эвенкия, Россия) (198 км)
Погода в Келлоге (Красноярский край, Россия) (203 км)
Погода в Бахте (Красноярский край, Россия) (210 км)
Погода в Курейке (Красноярский край, Россия) (249 км)
Погода в Тольке (Ямало-Ненецкий АО, Россия) (263 км)
Погода в Красноселькупске (Ямало-Ненецкий АО, Россия) (287 км)
Погода в Тутончанах (Эвенкия, Россия) (305 км)
Погода в Светлогорске (Красноярский край, Россия) (306 км)

Пояснения к столбцам:

Ветер - указаны скорость ветра в м/с - средняя за 10 мин, порывы в срок и между сроками (в фигурных скобках) и направление, откуда дует ветер: С - северный, СВ - северо-восточный, В - восточный, ЮВ - юго-восточный, Ю - южный, ЮЗ - юго-западный, З - западный, СЗ - северо-западный.
Видимость - горизонтальная дальность видимости в метрах или километрах. При видимости от 1 до 10 км при отсутствии осадков обычно наблюдается дымка, при ухудшении видимости до 1 км и менее - туман. В сухую погоду видимость может ухудшаться дымом, пылью или мглою.
Явления - указаны атмосферные явления, наблюдавшиеся в срок или в последний час перед сроком; фигурными скобками обозначены явления, наблюдавшиеся между сроками (за 1-3 часа до срока); квадратными скобками обозначены град или гололедные отложения с указанием их диаметра в мм.
Облачность - указаны через наклонную черту общая и нижняя облачность в баллах и высота нижней границы облаков в метрах; квадратными скобками обозначены формы облаков: Ci - перистые, Cs - перисто-слоистые, Cc - перисто-кучевые, Ac - высококучевые, As - высокослоистые, Sc - слоисто-кучевые, Ns - слоисто-дождевые, Cu - кучевые, Cb - кучево-дождевые. Подробнее классификацию облаков см. в Атласе облаков (PDF).
T - Температура воздуха - температура, измеренная на высоте 2 м над землей.
Td - Температура точки росы - температура, при понижении до которой содержащийся в воздухе водяной пар достигнет насыщения.
f - Относительная влажность воздуха - влажноcть воздуха, измеренная на высоте 2 м над землей.
Te - Эффективная температура - температура, которую ощущает одетый по сезону человек в тени. Характеристика душности погоды. При расчете учитывается влияние влажности воздуха и скорости ветра на теплоощущения человека.
Tes - Эффективная температура на солнце - температура, которую ощущает человек, с поправкой на солнечный нагрев. Характеристика знойности погоды. Зависит от высоты солнца над горизонтом, облачности и скорости ветра. Ночью, в пасмурную погоду, а также при ветре 12 м/с и более поправка равна нулю.
P - Атмосферное давление - приведенное к уровню моря атмосферное давление.
Po - Атмосферное давление - измеренное на уровне метеостанции атмосферное давление.
Tmin - Минимальная температура - минимум температуры воздуха на высоте 2 м над землей.
Tmax - Максимальная температура - максимум температуры воздуха на высоте 2 м над землей.
R - Количество осадков - Количество выпавших осадков за период времени, мм. При наведении курсора мыши на число - период времени, за который выпало указанное количество осадков.
R24 - Количество осадков - Количество выпавших осадков за 24 часа, мм.
S - Снежный покров - Высота снежного покрова, см. При наведении курсора мыши на число - состояние снежного покрова и степень покрытия местности в баллах.